N4399F KMEM-KMEM

Flight info

Callsign N4399F
Flight time 0h 11m
Altitude VFR/013
Route
Aircraft BT36/L-DOV/C

Departure

Time 2026-05-08 02:15
Airport Memphis International Airport (KMEM)

Arrival

Time 2026-05-08 02:26
Airport Memphis International Airport (KMEM)
Time Latitude Longitude Altitude Speed Heading
2026-05-08 02:02 35.05478 -89.98145 292 ft 0 kts 91°
2026-05-08 02:07 35.05494 -89.98149 295 ft 12 kts 272°
2026-05-08 02:07 35.05497 -89.98288 285 ft 17 kts 276°
2026-05-08 02:08 35.05554 -89.98384 283 ft 14 kts 307°
2026-05-08 02:08 35.05570 -89.98442 282 ft 0 kts 273°
2026-05-08 02:08 35.05571 -89.98442 282 ft 0 kts 273°
2026-05-08 02:09 35.05570 -89.98442 282 ft 0 kts 273°
2026-05-08 02:09 35.05571 -89.98442 282 ft 0 kts 273°
2026-05-08 02:09 35.05570 -89.98442 282 ft 0 kts 273°
2026-05-08 02:09 35.05571 -89.98442 282 ft 0 kts 273°
2026-05-08 02:10 35.05571 -89.98445 282 ft 4 kts 274°
2026-05-08 02:10 35.05544 -89.98511 280 ft 25 kts 199°
2026-05-08 02:10 35.05136 -89.98515 290 ft 57 kts 179°
2026-05-08 02:10 35.04894 -89.98517 292 ft 27 kts 181°
2026-05-08 02:11 35.04751 -89.98516 293 ft 16 kts 182°
2026-05-08 02:11 35.04635 -89.98508 293 ft 18 kts 174°
2026-05-08 02:11 35.04504 -89.98509 291 ft 20 kts 180°
2026-05-08 02:11 35.04370 -89.98538 292 ft 20 kts 206°
2026-05-08 02:12 35.04246 -89.98570 291 ft 11 kts 186°
2026-05-08 02:12 35.04227 -89.98578 291 ft 1 kts 216°
2026-05-08 02:12 35.04205 -89.98602 294 ft 8 kts 225°
2026-05-08 02:12 35.04190 -89.98620 294 ft 0 kts 236°
2026-05-08 02:14 35.04188 -89.98624 293 ft 2 kts 250°
2026-05-08 02:14 35.04192 -89.98683 292 ft 12 kts 287°
2026-05-08 02:14 35.04455 -89.98733 291 ft 82 kts 359°
2026-05-08 02:15 35.05125 -89.98752 556 ft 115 kts 359°
2026-05-08 02:15 35.05969 -89.98836 826 ft 126 kts 334°
2026-05-08 02:15 35.06454 -89.99682 1109 ft 130 kts 277°
2026-05-08 02:15 35.05925 -90.00335 1352 ft 125 kts 178°
2026-05-08 02:16 35.04902 -90.00260 1024 ft 161 kts 178°
2026-05-08 02:16 35.03864 -90.00246 980 ft 139 kts 182°
2026-05-08 02:16 35.02885 -90.00266 871 ft 142 kts 181°
2026-05-08 02:16 35.01965 -90.00282 914 ft 125 kts 181°
2026-05-08 02:17 35.01286 -90.00059 805 ft 88 kts 131°
2026-05-08 02:17 35.01290 -89.99328 728 ft 88 kts 62°
2026-05-08 02:17 35.01728 -89.98762 565 ft 90 kts 18°
2026-05-08 02:17 35.02291 -89.98687 366 ft 82 kts 356°
2026-05-08 02:18 35.02815 -89.98691 311 ft 65 kts 354°
2026-05-08 02:18 35.03387 -89.98702 437 ft 95 kts 357°
2026-05-08 02:18 35.04075 -89.98688 657 ft 101 kts 356°
2026-05-08 02:18 35.04795 -89.98693 852 ft 106 kts 359°
2026-05-08 02:19 35.05536 -89.98736 989 ft 104 kts 354°
2026-05-08 02:19 35.06188 -89.99107 824 ft 124 kts 294°
2026-05-08 02:19 35.06094 -89.99718 398 ft 113 kts 298°
2026-05-08 02:19 35.05666 -90.00158 590 ft 116 kts 161°
2026-05-08 02:20 35.04841 -89.99975 663 ft 132 kts 180°
2026-05-08 02:20 35.03888 -89.99941 720 ft 141 kts 181°
2026-05-08 02:20 35.02935 -89.99959 714 ft 134 kts 184°
2026-05-08 02:20 35.02090 -89.99876 625 ft 112 kts 148°
2026-05-08 02:21 35.01854 -89.99101 527 ft 99 kts 82°
2026-05-08 02:21 35.02325 -89.98698 376 ft 82 kts 352°
2026-05-08 02:21 35.02807 -89.98699 310 ft 59 kts 359°
2026-05-08 02:21 35.03349 -89.98713 409 ft 90 kts 358°
2026-05-08 02:22 35.04093 -89.98730 675 ft 120 kts 354°
2026-05-08 02:22 35.04991 -89.98773 1053 ft 137 kts 357°
2026-05-08 02:22 35.05935 -89.98847 974 ft 130 kts 355°
2026-05-08 02:22 35.06659 -89.99264 999 ft 117 kts 282°
2026-05-08 02:23 35.06108 -89.99871 1122 ft 121 kts 192°
2026-05-08 02:23 35.05228 -90.00081 769 ft 134 kts 188°
2026-05-08 02:23 35.04339 -90.00174 547 ft 119 kts 186°
2026-05-08 02:23 35.03642 -90.00247 328 ft 90 kts 184°
2026-05-08 02:24 35.03070 -90.00263 294 ft 83 kts 180°
2026-05-08 02:24 35.02525 -90.00264 347 ft 83 kts 176°
2026-05-08 02:24 35.02079 -89.99877 521 ft 86 kts 120°
2026-05-08 02:24 35.01833 -89.99159 570 ft 93 kts 89°
2026-05-08 02:25 35.02232 -89.98710 405 ft 83 kts
2026-05-08 02:25 35.02742 -89.98699 311 ft 58 kts 358°
2026-05-08 02:25 35.03241 -89.98726 336 ft 93 kts
2026-05-08 02:25 35.03916 -89.98717 465 ft 107 kts 357°
2026-05-08 02:26 35.04655 -89.98746 703 ft 103 kts 353°
2026-05-08 02:26 35.05424 -89.98775 673 ft 113 kts 351°
2026-05-08 02:26 35.05577 -89.98904 269 ft 0 kts 65°
2026-05-08 02:27 35.05478 -89.98145 269 ft 7 kts 91°